Regional Weather Roundup
Issued by NWS

Home | Current Version | Previous Version | Graphics & Text | Print | Product List | Glossary Off
Versions: 1 2 3 4 5 6 7 8 9 10 11 12 13 14 15 16 17 18 19 20 21 22 23 24 25 26 27 28 29 30 31 32 33 34 35 36 37 38 39 40 41 42 43 44 45 46 47 48 49 50

000
ASUS43 KTOP 312008
RWRKS

WEATHER ROUNDUP FOR KANSAS
NATIONAL WEATHER SERVICE GOODLAND KS
300 PM CDT FRI JUL 31 2015

NOTE:  "FAIR" INDICATES FEW OR NO CLOUDS BELOW 12,000 FEET WITH NO
SIGNIFICANT WEATHER AND/OR OBSTRUCTIONS TO VISIBILITY.

KSZ001>006-013>018-027>032-041>047-312100-
NORTHWEST KANSAS

CITY           SKY/WX    TMP DP  RH WIND       PRES   REMARKS
GOODLAND       MOSUNNY   87  62  43 SW12      30.22F
HAYS           MOSUNNY   90  64  43 S13       30.15F
HILL CITY      SUNNY     93  60  33 S7        30.15F
RUSSELL        SUNNY     92  65  40 E5        30.13F
$$

KSZ061>065-074>080-084>089-312100-
SOUTHWEST KANSAS

CITY           SKY/WX    TMP DP  RH WIND       PRES   REMARKS
DODGE CITY     PTSUNNY   85  65  51 W8        30.20F
ELKHART          N/A     77  63  62 E7          N/A
GARDEN CITY    MOSUNNY   84  66  54 SW10      30.20F
GREAT BEND     MOSUNNY   88  64  45 SW5       30.14F
LIBERAL        CLOUDY    79  64  61 E9        30.20F
PRATT          MOSUNNY   88  64  45 SW7       30.17F
$$

KSZ066>073-081>083-090>101-312100-
SOUTHEAST KANSAS

CITY           SKY/WX    TMP DP  RH WIND       PRES   REMARKS
CHANUTE        SUNNY     90  65  43 S5        30.12F
COFFEYVILLE    SUNNY     89  71  55 VRB3      30.10F HX  95
HUTCHINSON     MOSUNNY   88  67  49 CALM      30.15F
MEDICINE LODGE   N/A     87  70  56 CALM      30.14F
NEWTON         SUNNY     88  66  48 SE3       30.17F
PARSONS        MOSUNNY   89  72  56 CALM      30.13F HX  96
WICHITA INTL   PTSUNNY   89  69  51 VRB5      30.13F
WICHITA JABRA  MOSUNNY   89  67  47 CALM      30.13F
WICHITA MCCONL SUNNY     89  69  50 S5        30.13F
WINFIELD       MOSUNNY   90  73  57 NW6       30.12F HX  98
$$

KSZ007>012-019>026-033>040-048>060-102>105-312100-
NORTHEAST KANSAS

CITY           SKY/WX    TMP DP  RH WIND       PRES   REMARKS
CONCORDIA      SUNNY     90  66  45 CALM      30.12F
EMPORIA        SUNNY     89  65  44 NW3       30.12F
LAWRENCE       SUNNY     89  66  46 CALM      30.11F
MANHATTAN      SUNNY     90  70  51 N6        30.11F HX  95
MARYSVILLE     SUNNY     90  70  51 S6        30.12F HX  95
OLATHE IND     SUNNY     88  64  44 NW6       30.13F
OLATHE EXE     SUNNY     89  60  37 VRB6      30.12F
SALINA         MOSUNNY   92  69  47 VRB6      30.12F HX  97
TOPEKA BILLARD SUNNY     89  66  46 N6        30.12F
TOPEKA FORBES  SUNNY     90  63  40 VRB3      30.12F
$$



USA.gov is the U.S. government's official web portal to all federal, state and local government web resources and services.